Regional Weather Roundup
Issued by NWS Goodland, KS

Home | Current Version | Previous Version | Text Only | Print | Product List | Glossary On
Versions: 1 2 3 4 5 6 7 8 9 10 11 12 13 14 15 16 17 18 19 20 21 22 23 24 25 26 27 28 29 30 31 32 33 34 35 36 37 38 39 40 41 42 43 44 45 46 47 48 49 50
000
ASUS43 KGLD 011708
RWRGLD

GOODLAND FORECAST AREA HOURLY WEATHER ROUNDUP
NATIONAL WEATHER SERVICE GOODLAND KS
1100 AM MDT SAT OCT 01 2016

...OFFICIAL OBSERVATIONS...

CITY           SKY/WX    TMP DP  RH WIND       PRES   REMARKS
GOODLAND KS    SUNNY     67  48  50 SE8       30.10F
HILL CITY KS   MOSUNNY   68  49  50 SE9       30.12F
IMPERIAL NEB   SUNNY     69  48  47 S15       30.10F
MCCOOK NEB     SUNNY     70  49  47 S12       30.11F
AKRON CO       SUNNY     71  46  40 CALM      30.12F
BURLINGTON CO  SUNNY     69  48  47 E7        30.12F
LIMON CO       SUNNY     73  42  32 N6        30.15F
$$

...UNOFFICIAL OBSERVATIONS...

CITY           SKY/WX    TMP DP  RH WIND       PRES   REMARKS
COLBY KS       SUNNY     70  52  52 SE9       30.12F
LENORA KS        N/A     67  32  27 MISG        N/A
NORTON KS      SUNNY     72  43  35 SE8       30.11S
SHARON SPRINGS   N/A     64  52  65 CALM        N/A
TRIBUNE KS     CLOUDY    68  52  56 E6        30.11
KIT CARSON CO    N/A     68  52  55 MISG        N/A
$$




USA.gov is the U.S. government's official web portal to all federal, state and local government web resources and services.